www.pogodaiklimat.ru

Погода и климат >> Архив погоды >> Украина >> Черновцы


АРХИВ ПОГОДЫ в Черновцах

Время (UTC), дата Ветер
(напр.,м/с)
 
Видим.   Явления Облачность Т
(С)
Тd
(С)
f
(%)
Тe
(С)
Тes
(С)
Комфортность P
(гПа)
Po
(гПа)
Тmin
(С)
Tmax
(С)
R
(мм)
R24
(мм)
S
(см)
15 15.08 С 5 50 км 9/5 1000 м
[Cb calv Ac trans]
+16.9 +12.0 73 +16 +17 холодно 1015.7 986.9
18 15.08 штиль 0 50 км 6/0
[Ac trans]
+15.3 +12.0 81 +15 +15 холодно 1016.0 987.1 +17.4 2
21 15.08 СЗ 2 12 км 6/0
[Ac trans]
+13.6 +12.1 91 +13 +13 холодно 1016.7 987.6
00 16.08 СЗ 2 25 км 8/0
[Ac trans]
+14.4 +12.8 90 +14 +14 по сезону 1016.2 987.2
03 16.08 СЗ 4 17 км 4/0
[Ac trans]
+13.9 +12.6 92 +12 +12 прохладно 1016.0 986.9
06 16.08 СЗ 4 40 км 3/0
[Ac trans]
+15.9 +13.6 86 +15 +18 по сезону 1016.2 987.3 +13.0
09 16.08 СЗ 4 50 км 4/4 1500 м
[Cu hum]
+19.6 +10.4 55 +21 +26 комфорт 1015.6 987.1
12 16.08 З 3 50 км 6/6 1500 м
[Cu hum]
+20.5 +9.3 49 +22 +26 комфорт 1015.1 986.7
15 16.08 СЗ 3 50 км 4/4 1500 м
[Cu hum]
+20.9 +8.2 44 +23 +24 комфорт 1014.5 986.1
18 16.08 СЗ 1 30 км ясно +17.3 +10.0 62 +18 +18 прохладно 1015.7 986.9 +22.0
21 16.08 штиль 0 30 км 6/0
[Ac trans]
+13.8 +11.8 88 +13 +13 холодно 1016.8 987.7
00 17.08 СЗ 2 25 км ясно +12.9 +12.0 94 +12 +12 прохладно 1016.7 987.5
03 17.08 СЗ 3 19 км ясно +11.2 +10.8 97 +9 +9 холодно 1017.0 987.6
06 17.08 СЗ 4 35 км ясно +14.3 +12.3 88 +13 +16 прохладно 1017.6 988.5 +11.0
09 17.08 СЗ 4 50 км 4/4 1500 м
[Cu hum]
+20.3 +10.6 54 +22 +27 комфорт 1016.8 988.3
12 17.08 СЗ 5 50 км 8/8 1500 м
[Cu hum]
+22.1 +8.6 42 +23 +25 комфорт 1015.6 987.3
15 17.08 СЗ 3 50 км 6/0
[Ac trans Ci fib]
+22.7 +9.2 42 +24 +26 комфорт 1015.2 987.0
18 17.08 штиль 0 50 км 3/0
[Ci fib]
+18.9 +10.2 57 +20 +20 по сезону 1015.7 987.1 +23.8
21 17.08 З 1 24 км ясно +14.6 +11.5 82 +15 +15 прохладно 1016.3 987.3
00 18.08 З 2 20 км 3/0
[Ci fib]
+13.2 +11.7 91 +12 +12 прохладно 1016.7 987.5
03 18.08 СЗ 1 18 км ясно +12.0 +11.1 94 +12 +12 прохладно 1016.9 987.6
06 18.08 С 2 25 км 3/0
[Ci fib]
+15.5 +12.4 82 +15 +19 по сезону 1016.7 987.8 +11.6
09 18.08 ЮВ 2 50 км 3/0
[Ci fib]
+23.6 +9.3 40 +24 +37 комфорт 1015.7 987.5
12 18.08 ЮЗ 2 50 км ясно +26.3 +10.1 36 +27 +39 жарко 1014.9 987.0
15 18.08 В 2 50 км 4/0
[Ci fib]
+26.6 +11.5 39 +28 +31 жарко 1014.7 986.9
18 18.08 штиль 0 45 км ясно +21.9 +12.7 56 +24 +24 комфорт 1015.5 987.2 +26.9
21 18.08 ЮЗ 1 50 км 3/0
[Ac trans]
+18.3 +13.2 72 +20 +20 тепло 1016.5 987.8
00 19.08 ЮЗ 1 50 км ясно +16.4 +13.6 84 +17 +17 тепло 1017.2 988.3
03 19.08 штиль 0 50 км ясно +14.9 +12.4 85 +15 +15 по сезону 1017.8 988.8
06 19.08 штиль 0 50 км ясно +18.8 +15.2 80 +20 +25 тепло 1018.4 989.8 +14.6 189
09 19.08 В 2 40 км ясно +26.0 +16.7 57 +30 +43 душно 1017.7 989.8
12 19.08 В 2 50 км 3/3 1500 м
[Cu hum]
+29.4 +14.9 41 +32 +40 душно 1016.7 989.1
15 19.08 В 2 50 км 6/0
[Ci fib]
+29.2 +14.4 40 +31 +34 жарко 1016.9 989.3
18 19.08 штиль 0 21 км ясно +24.0 +14.0 54 +26 +26 жарко 1018.3 990.1 +30.0
21 19.08 штиль 0 29 км ясно +20.4 +16.1 76 +23 +23 комфорт 1019.1 990.6
00 20.08 штиль 0 17 км ясно +17.9 +16.1 89 +18 +18 тепло 1019.2 990.5
03 20.08 штиль 0 18 км ясно +16.3 +15.4 94 +16 +16 по сезону 1020.1 991.2
06 20.08 штиль 0 30 км ясно +20.8 +15.6 72 +24 +29 комфорт 1020.9 992.4 +16.0
09 20.08 ЮВ 3 40 км ясно +27.2 +14.7 46 +30 +40 душно 1020.6 992.7
12 20.08 ЮВ 4 50 км ясно +30.4 +13.2 35 +32 +40 жарко 1019.6 992.0
15 20.08 В 3 50 км 4/0
[Ci fib]
+30.2 +13.2 35 +31 +34 жарко 1019.5 991.9
18 20.08 ЮВ 2 12 км 6/0
[Ci fib]
+24.3 +13.6 51 +27 +27 жарко 1020.8 992.6 +31.0
21 20.08 штиль 0 25 км 5/0
[Ci fib]
+20.6 +12.9 61 +23 +23 комфорт 1021.5 992.9
00 21.08 ЮЗ 2 30 км ясно +17.8 +13.2 74 +18 +18 тепло 1021.1 992.3
03 21.08 ЮЗ 1 35 км ясно +16.3 +13.8 85 +17 +17 тепло 1021.0 992.0
06 21.08 ЮВ 1 40 км ясно +20.7 +15.0 70 +25 +30 комфорт 1021.2 992.7 +15.9
09 21.08 СВ 2 25 км ясно +27.9 +15.8 48 +31 +44 душно 1020.1 992.3
12 21.08 В 3 50 км ясно +31.6 +13.0 32 +32 +42 жарко 1018.7 991.2
15 21.08 В 2 50 км 3/0
[Ci fib]
+31.4 +11.2 29 +32 +34 жарко 1018.7 991.2
18 21.08 СЗ 4 14 км 6/3 1000 м
[Cb calv Ci fib]
+25.1 +13.4 48 +27 +27 жарко 1020.5 992.4 +32.0
21 21.08 СЗ 6 35 км 8/4 480 м
[Cb calv Ac trans]
+21.0 +17.8 82 +25 +25 комфорт 1023.2 994.7
00 22.08 СЗ 7 30 км 8/4 570 м
[Cb calv Ac trans]
+18.9 +16.4 85 +20 +20 тепло 1024.5 995.7
03 22.08 СЗ 7 50 км 9/9 1000 м
[Cb calv]
+17.7 +15.1 85 +17 +17 тепло 1025.1 996.2
06 22.08 СЗ 6 50 км 9/6 480 м
[Cb calv Ac trans]
+17.1 +14.1 83 +16 +16 по сезону 1026.5 997.5 +16.9
09 22.08 СЗ 5 50 км 9/6 450 м
[Cb calv Ac trans]
+17.8 +14.3 80 +17 +19 прохладно 1027.3 998.3
12 22.08 СЗ 5 50 км 8/8 1500 м
[Cu hum]
+20.5 +14.2 67 +23 +24 комфорт 1025.9 997.2

 

Местоположение метеостанции Черновцы (Черновицкая область, Украина): широта 48.37 долгота 25.90 высота над уровнем моря 246 м.

В архиве по умолчанию представлена погода в Черновцах за последнюю неделю. Архивные данные за месяц целиком и за предыдущие месяцы, начиная с января 2011 года, Вы можете получить, выбрав интересующий диапазон дат из раскрывающегося списка и нажав кнопку "Ввод!".


*Определитесь, кто Вы:
робот инопланетянин человек

Внимание! Время в таблицах - всемирное. Для получения местного времени необходимо прибавить поправку, которая равна 2 ч.

Смотрите также архив погоды в соседних городах и на ближайших метеорологических станциях:

Погода в Дарабани (Румыния) (54 км)
Погода в Рэдэуци (Румыния) (60 км)
Погода в Каменец-Подольском (Хмельницкая область, Украина) (65 км)
Погода в Коломые (Ивано-Франковская область, Украина) (67 км)
Погода в Чорткове (Тернопольская область, Украина) (73 км)
Погода в Селятине (Черновицкая область, Украина) (75 км)
Погода в Сучава (Румыния) (86 км)
Погода в Бричанах (Молдова) (87 км)
Погода в Ботошани (Румыния) (90 км)
Погода на Пожежевской (Ивано-Франковская область, Украина) (107 км)

Пояснения к столбцам:

Ветер - указаны скорость ветра в м/с - средняя за 10 мин, порывы в срок и между сроками (в фигурных скобках) и направление, откуда дует ветер: С - северный, СВ - северо-восточный, В - восточный, ЮВ - юго-восточный, Ю - южный, ЮЗ - юго-западный, З - западный, СЗ - северо-западный.
Видимость - горизонтальная дальность видимости в метрах или километрах. При видимости от 1 до 10 км при отсутствии осадков обычно наблюдается дымка, при ухудшении видимости до 1 км и менее - туман. В сухую погоду видимость может ухудшаться дымом, пылью или мглою.
Явления - указаны атмосферные явления, наблюдавшиеся в срок или в последний час перед сроком; фигурными скобками обозначены явления, наблюдавшиеся между сроками (за 1-3 часа до срока); квадратными скобками обозначены град или гололедные отложения с указанием их диаметра в мм.
Облачность - указаны через наклонную черту общая и нижняя облачность в баллах и высота нижней границы облаков в метрах; квадратными скобками обозначены формы облаков: Ci - перистые, Cs - перисто-слоистые, Cc - перисто-кучевые, Ac - высококучевые, As - высокослоистые, Sc - слоисто-кучевые, Ns - слоисто-дождевые, Cu - кучевые, Cb - кучево-дождевые. Подробнее классификацию облаков см. в Атласе облаков (PDF).
T - Температура воздуха - температура, измеренная на высоте 2 м над землей.
Td - Температура точки росы - температура, при понижении до которой содержащийся в воздухе водяной пар достигнет насыщения.
f - Относительная влажность воздуха - влажноcть воздуха, измеренная на высоте 2 м над землей.
Te - Эффективная температура - температура, которую ощущает одетый по сезону человек в тени. Характеристика душности погоды. При расчете учитывается влияние влажности воздуха и скорости ветра на теплоощущения человека.
Tes - Эффективная температура на солнце - температура, которую ощущает человек, с поправкой на солнечный нагрев. Характеристика знойности погоды. Зависит от высоты солнца над горизонтом, облачности и скорости ветра. Ночью, в пасмурную погоду, а также при ветре 12 м/с и более поправка равна нулю.
P - Атмосферное давление - приведенное к уровню моря атмосферное давление.
Po - Атмосферное давление - измеренное на уровне метеостанции атмосферное давление.
Tmin - Минимальная температура - минимум температуры воздуха на высоте 2 м над землей.
Tmax - Максимальная температура - максимум температуры воздуха на высоте 2 м над землей.
R - Количество осадков - Количество выпавших осадков за период времени, мм. При наведении курсора мыши на число - период времени, за который выпало указанное количество осадков.
R24 - Количество осадков - Количество выпавших осадков за 24 часа, мм.
S - Снежный покров - Высота снежного покрова, см. При наведении курсора мыши на число - состояние снежного покрова и степень покрытия местности в баллах.